When you browse on this site, cookies collect data to enhance your experience and personalize the content and advertising you see.
Visit our Privacy Policy to learn more. By continuing to use the site, you agree to this use of cookies and data.
  • In Germany
  • List of Countries
  • For 7 days
  • Water Temperature
  • Weather Map
  • Weather Widgets
  • user-avatar
    Login

    Hourly Weather Lankaran

    Today, 22 August, Thursday

    Time Temperature Precipitation Wind Pressure Humidity
    00:00 +15°C° 0 mm 1 mps 633 mmHg 37%
    01:00 +15°C° 0 mm 1 mps 633 mmHg 36%
    02:00 +15°C° 0 mm 1 mps 633 mmHg 36%
    03:00 +15°C° 0 mm 1 mps 633 mmHg 35%
    04:00 +15°C° 0 mm 1 mps 633 mmHg 34%
    05:00 +16°C° 0 mm 1 mps 634 mmHg 32%
    06:00 +16°C° 0 mm 1 mps 634 mmHg 31%
    07:00 +20°C° 0 mm 1 mps 635 mmHg 27%
    08:00 +23°C° 0 mm 2 mps 636 mmHg 23%
    09:00 +25°C° 0 mm 2 mps 637 mmHg 19%
    10:00 +26°C° 0 mm 3 mps 637 mmHg 18%
    11:00 +28°C° 0 mm 3 mps 637 mmHg 18%
    12:00 +29°C° 0 mm 4 mps 636 mmHg 17%
    13:00 +29°C° 0 mm 4 mps 636 mmHg 18%
    14:00 +28°C° 0 mm 4 mps 636 mmHg 18%
    15:00 +28°C° 0 mm 4 mps 636 mmHg 19%
    16:00 +26°C° 0 mm 3 mps 635 mmHg 24%
    17:00 +24°C° 0 mm 3 mps 634 mmHg 29%
    18:00 +21°C° 0 mm 2 mps 633 mmHg 34%
    19:00 +19°C° 0 mm 2 mps 633 mmHg 34%
    20:00 +19°C° 0 mm 1 mps 633 mmHg 34%
    21:00 +16°C° 0 mm 1 mps 632 mmHg 34%
    22:00 +16°C° 0 mm 1 mps 632 mmHg 34%
    23:00 +16°C° 0 mm 1 mps 632 mmHg 33%

    Tomorrow, 23 August, Friday

    Time Temperature Precipitation Wind Pressure Humidity
    00:00 +16°C° 0 mm 1 mps 633 mmHg 32%
    01:00 +15°C° 0 mm 1 mps 633 mmHg 32%
    02:00 +15°C° 0 mm 1 mps 633 mmHg 32%
    03:00 +15°C° 0 mm 1 mps 633 mmHg 32%
    04:00 +16°C° 0 mm 1 mps 633 mmHg 34%
    05:00 +16°C° 0 mm 1 mps 633 mmHg 35%
    06:00 +18°C° 0 mm 1 mps 633 mmHg 36%
    07:00 +19°C° 0 mm 2 mps 634 mmHg 32%
    08:00 +22°C° 0 mm 3 mps 635 mmHg 28%
    09:00 +26°C° 0 mm 3 mps 636 mmHg 24%
    10:00 +27°C° 0 mm 4 mps 636 mmHg 23%
    11:00 +28°C° 0 mm 4 mps 637 mmHg 21%
    12:00 +29°C° 0 mm 5 mps 637 mmHg 20%
    13:00 +29°C° 0 mm 5 mps 636 mmHg 21%
    14:00 +28°C° 0 mm 5 mps 636 mmHg 22%
    15:00 +28°C° 0 mm 5 mps 635 mmHg 23%
    16:00 +26°C° 0 mm 4 mps 635 mmHg 27%
    17:00 +23°C° 0 mm 4 mps 634 mmHg 32%
    18:00 +21°C° 0 mm 3 mps 633 mmHg 37%
    19:00 +20°C° 0 mm 2 mps 633 mmHg 38%
    20:00 +19°C° 0 mm 2 mps 633 mmHg 39%
    21:00 +19°C° 0 mm 1 mps 633 mmHg 40%
    22:00 +19°C° 0 mm 1 mps 633 mmHg 39%
    23:00 +19°C° 0 mm 1 mps 633 mmHg 39%

    Day after tomorrow, 24 August, Saturday

    Time Temperature Precipitation Wind Pressure Humidity
    00:00 +19°C° 0 mm 1 mps 633 mmHg 39%
    01:00 +18°C° 0 mm 1 mps 633 mmHg 40%
    02:00 +18°C° 0 mm 1 mps 633 mmHg 40%
    03:00 +16°C° 0 mm 1 mps 633 mmHg 41%
    04:00 +18°C° 0 mm 1 mps 633 mmHg 40%
    05:00 +19°C° 0 mm 1 mps 633 mmHg 38%
    06:00 +19°C° 0 mm 1 mps 634 mmHg 37%
    07:00 +21°C° 0 mm 2 mps 635 mmHg 33%
    08:00 +24°C° 0 mm 3 mps 636 mmHg 29%
    09:00 +27°C° 0 mm 3 mps 636 mmHg 25%
    10:00 +28°C° 0 mm 4 mps 636 mmHg 24%
    11:00 +29°C° 0 mm 5 mps 636 mmHg 24%
    12:00 +30°C° 0 mm 5 mps 637 mmHg 23%
    13:00 +30°C° 0 mm 5 mps 636 mmHg 23%
    14:00 +29°C° 0 mm 5 mps 636 mmHg 24%
    15:00 +29°C° 0 mm 5 mps 635 mmHg 24%
    16:00 +27°C° 0 mm 4 mps 635 mmHg 27%
    17:00 +25°C° 0 mm 3 mps 634 mmHg 31%
    18:00 +23°C° 0 mm 2 mps 634 mmHg 34%
    19:00 +21°C° 0 mm 2 mps 634 mmHg 34%
    20:00 +20°C° 0 mm 2 mps 634 mmHg 34%
    21:00 +19°C° 0 mm 1 mps 634 mmHg 33%
    22:00 +19°C° 0 mm 1 mps 634 mmHg 33%
    23:00 +19°C° 0 mm 1 mps 634 mmHg 33%

    25 August, Sunday

    Time Temperature Precipitation Wind Pressure Humidity
    00:00 +18°C° 0 mm 1 mps 634 mmHg 33%
    01:00 +18°C° 0 mm 1 mps 634 mmHg 34%
    02:00 +16°C° 0 mm 1 mps 633 mmHg 35%
    03:00 +16°C° 0 mm 1 mps 633 mmHg 36%
    04:00 +18°C° 0 mm 1 mps 634 mmHg 36%
    05:00 +18°C° 0 mm 1 mps 634 mmHg 35%
    06:00 +18°C° 0 mm 1 mps 634 mmHg 35%
    07:00 +21°C° 0 mm 1 mps 635 mmHg 31%
    08:00 +24°C° 0 mm 2 mps 636 mmHg 26%
    09:00 +26°C° 0 mm 2 mps 637 mmHg 22%
    10:00 +27°C° 0 mm 3 mps 637 mmHg 21%
    11:00 +28°C° 0 mm 3 mps 637 mmHg 21%
    12:00 +29°C° 0 mm 4 mps 637 mmHg 21%
    13:00 +29°C° 0 mm 4 mps 637 mmHg 22%
    14:00 +29°C° 0 mm 4 mps 637 mmHg 23%
    15:00 +29°C° 0 mm 5 mps 636 mmHg 23%
    16:00 +26°C° 0 mm 4 mps 636 mmHg 29%
    17:00 +24°C° 0 mm 3 mps 635 mmHg 34%
    18:00 +21°C° 0 mm 2 mps 634 mmHg 39%
    19:00 +20°C° 0 mm 2 mps 634 mmHg 40%
    20:00 +19°C° 0 mm 1 mps 634 mmHg 42%
    21:00 +18°C° 0 mm 1 mps 634 mmHg 43%
    22:00 +18°C° 0 mm 1 mps 634 mmHg 42%
    23:00 +18°C° 0 mm 1 mps 634 mmHg 41%

    26 August, Monday

    Time Temperature Precipitation Wind Pressure Humidity
    00:00 +18°C° 0 mm 1 mps 634 mmHg 40%
    01:00 +18°C° 0 mm 1 mps 633 mmHg 41%
    02:00 +15°C° 0 mm 0 mps 633 mmHg 43%
    03:00 +15°C° 0 mm 0 mps 633 mmHg 44%
    04:00 +15°C° 0 mm 0 mps 633 mmHg 43%
    05:00 +16°C° 0 mm 0 mps 633 mmHg 42%
    06:00 +16°C° 0 mm 0 mps 634 mmHg 41%
    07:00 +21°C° 0 mm 1 mps 635 mmHg 36%
    08:00 +23°C° 0 mm 1 mps 636 mmHg 31%
    09:00 +26°C° 0 mm 2 mps 637 mmHg 27%
    10:00 +27°C° 0 mm 3 mps 637 mmHg 26%
    11:00 +27°C° 0 mm 3 mps 637 mmHg 26%
    12:00 +28°C° 0 mm 4 mps 637 mmHg 26%
    13:00 +28°C° 0 mm 4 mps 636 mmHg 25%
    14:00 +27°C° 0 mm 4 mps 636 mmHg 25%
    15:00 +27°C° 0 mm 4 mps 636 mmHg 25%
    16:00 +25°C° 0 mm 4 mps 635 mmHg 28%
    17:00 +22°C° 0 mm 3 mps 635 mmHg 32%
    18:00 +20°C° 0 mm 2 mps 634 mmHg 36%
    19:00 +19°C° 0 mm 2 mps 635 mmHg 35%
    20:00 +20°C° 0 mm 1 mps 635 mmHg 35%
    21:00 +19°C° 0 mm 1 mps 636 mmHg 34%
    22:00 +19°C° 0 mm 1 mps 635 mmHg 34%
    23:00 +19°C° 0 mm 1 mps 635 mmHg 34%

    27 August, Tuesday

    Time Temperature Precipitation Wind Pressure Humidity
    00:00 +18°C° 0 mm 1 mps 635 mmHg 34%
    01:00 +16°C° 0 mm 1 mps 635 mmHg 35%
    02:00 +16°C° 0 mm 1 mps 634 mmHg 37%
    03:00 +15°C° 0 mm 1 mps 634 mmHg 38%
    04:00 +15°C° 0 mm 1 mps 635 mmHg 37%
    05:00 +15°C° 0 mm 1 mps 635 mmHg 37%
    06:00 +16°C° 0 mm 1 mps 635 mmHg 36%
    07:00 +18°C° 0.1 mm 2 mps 636 mmHg 32%
    08:00 +20°C° 0.1 mm 3 mps 637 mmHg 29%
    09:00 +21°C° 0.1 mm 3 mps 637 mmHg 25%
    10:00 +22°C° 0.1 mm 4 mps 637 mmHg 26%
    11:00 +23°C° 0.1 mm 4 mps 637 mmHg 27%
    12:00 +23°C° 0.1 mm 5 mps 637 mmHg 27%
    13:00 +23°C° 0 mm 5 mps 637 mmHg 29%
    14:00 +22°C° 0 mm 5 mps 636 mmHg 31%
    15:00 +22°C° 0 mm 5 mps 636 mmHg 33%
    16:00 +20°C° 0 mm 4 mps 636 mmHg 39%
    17:00 +19°C° 0 mm 4 mps 636 mmHg 45%
    18:00 +17°C° 0 mm 3 mps 636 mmHg 51%
    19:00 +16°C° 0 mm 3 mps 636 mmHg 53%
    20:00 +15°C° 0 mm 2 mps 636 mmHg 55%
    21:00 +13°C° 0 mm 2 mps 636 mmHg 58%
    22:00 +13°C° 0 mm 2 mps 636 mmHg 60%
    23:00 +13°C° 0 mm 2 mps 636 mmHg 61%
    Show more